Location: Bismarck
(46.7731°N, 100.8200°W)
Time: 22:35:09
(UTC-06:00)

ISS - Pass Details

Date: 03 December 2017
Orbit: 403 x 407 km, 51.6° (Epoch: 12 December)

Event Time Altitude Azimuth Distance (km) Brightness Sun altitude
Rises 17:47:53 0° 245° (WSW) 2,323 2.6 -8.7°
Reaches altitude 10° 17:49:58 10° 247° (WSW) 1,465 0.7 -9.0°
Maximum altitude 17:53:15 81° 333° (NNW) 416 -3.8 -9.5°
Enters shadow 17:55:55 15° 62° (ENE) 1,211 -2.1 -9.9°
Drops below altitude 10° 17:56:33 10° 63° (ENE) 1,469 - -10.0°
Sets 17:58:39 0° 64° (ENE) 2,331 - -10.4°
